User: anonymous   Login
Location: Vigo di Fassa
(46.4167°N, 11.6667°E)
Time: 15:23:04
(UTC+00:00)
Language:

Resurs 1-3 - Orbit

View from above orbital plane
View from above orbital plane
View from above satellite
View from above satellite

Ground track
Ground track

The orbit data is extracted from the following two-line orbital elements,

1 23342U 94074A   21135.72099963  .00000140  00000-0  25577-4 0  9990
2 23342  97.8802 185.2124 0002001  69.4459 290.6967 14.79416914428710
Epoch (UTC): 15 May 2021 17:18:14
Eccentricity: 0.0002001
inclination: 97.8802°
perigee height: 630 km
apogee height: 632 km
right ascension of ascending node: 185.2124°
argument of perigee: 69.4459°
revolutions per day: 14.79416914
mean anomaly at epoch: 290.6967°
orbit number at epoch: 42871

The dashed part of the orbit path shows where the satellite is in the earth's shadow,  

DLR